Regional Weather Roundup
Issued by NWS

Current Version | Previous Version | Text Only | Print | Product List | Glossary On
Versions: 1 2 3 4 5 6 7 8 9 10 11 12 13 14 15 16 17 18 19 20 21 22 23 24 25 26 27 28 29 30 31 32 33 34 35 36 37 38 39 40 41 42 43 44 45 46 47 48 49 50
000
ASUS43 KDMX 061908
RWRIA

WEATHER ROUNDUP FOR IOWA
NATIONAL WEATHER SERVICE DES MOINES IA
200 PM CDT FRI MAY 06 2016

NOTE: "FAIR" INDICATES FEW OR NO CLOUDS BELOW 12,000 FEET WITH NO
SIGNIFICANT WEATHER AND/OR OBSTRUCTIONS TO VISIBILITY.

* - THESE STATIONS ARE NOT NWS STATIONS...THUS NOT UNDER NWS
QUALITY CONTROL.  THEY ALSO DO NOT REPORT WEATHER SUCH
AS PRECIPITATION OR FOG.

IAZ001>003-012>014-020>022-031>034-043>046-062000-
   NORTHWEST IOWA

CITY           SKY/WX    TMP DP  RH WIND       PRES   REMARKS
CARROLL *      SUNNY     86  39  19 SW25      29.93S HX  83
CHEROKEE *     SUNNY     82  50  32 SW23G31   29.89F HX  81
DENISON *      SUNNY     84  46  26 SW20G26   29.91F HX  82
LE MARS *      SUNNY     84  50  30 SW21G32   29.88F HX  82
ORANGE CITY *  SUNNY     84  52  32 SW25G32   29.88F HX  82
SHELDON *      SUNNY     86  46  25 W24G35    29.85F HX  83
SIOUX CITY     SUNNY     85  54  34 SW21G26   29.90F HX  83
SPENCER        SUNNY     86  44  23 SW24G33   29.87F HX  83
STORM LAKE *   SUNNY     84  46  26 SW22G38   29.91F HX  82
$$

IAZ055>058-069>071-079>083-090>094-062000-
   SOUTHWEST IOWA

CITY           SKY/WX    TMP DP  RH WIND       PRES   REMARKS
ATLANTIC *     SUNNY     82  43  24 SW23      29.95F HX  80
AUDUBON *      SUNNY     84  30  14 SW21G26   29.96F HX  81
CLARINDA *       N/A     82  48  30 MISG      29.99F HX  81
COUNCIL BLFS * SUNNY     82  41  23 SW16G24   29.95F HX  80
CRESTON *      SUNNY     81  46  30 SW20G26   30.00F HX  80
HARLAN  *      SUNNY     84  39  20 SW24G32   29.97F HX  81
LAMONI         SUNNY     78  52  40 SW16      30.00F
RED OAK *      SUNNY     82  48  30 SW18G24   29.97F HX  81
SHENANDOAH *   SUNNY     84  43  23 SW16G25   29.98F HX  82
$$

IAZ047>049-059>061-072>074-084-062000-
   CENTRAL IOWA

CITY           SKY/WX    TMP DP  RH WIND       PRES   REMARKS
AMES           SUNNY     86  42  21 W18G31    29.92F HX  83
ANKENY *       SUNNY     84  46  26 SW15G22   29.93F HX  82
BOONE *        SUNNY     84  41  21 W16G30    29.92F HX  81
CHARITON *     SUNNY     81  50  34 SW14      29.98F HX  80
DES MOINES     MOSUNNY   85  43  22 W21       29.95F HX  82
GRINNELL*      SUNNY     82  46  28 SW17      29.94F HX  81
KNOXVILLE *    SUNNY     82  48  30 SW14      29.95F HX  81
MARSHALLTOWN   SUNNY     85  46  25 W18       29.90F HX  82
NEWTON *       SUNNY     84  45  24 SW16G24   29.93F HX  82
PELLA *        SUNNY     83  47  28 SW13      29.96F HX  81
PERRY *          N/A     86  39  19 SW20G28   29.93F HX  83
$$

IAZ004>006-015-016-023>025-035-036-062000-
   NORTH CENTRAL IOWA

CITY           SKY/WX    TMP DP  RH WIND       PRES   REMARKS
ALGONA *       SUNNY     86  43  22 SW28G35   29.88F HX  83
CLARION *      SUNNY     88  32  13 SW25G32   29.89F HX  84
ESTHERVILLE    SUNNY     85  48  27 SW26G33   29.86F HX  82
FORT DODGE *   SUNNY     84  45  24 SW18G26   29.92S HX  82
MASON CITY     SUNNY     87  43  21 W16G25    29.88F HX  84
FOREST CITY *  SUNNY     84  39  20 SW18G28   29.87F HX  81
WEBSTER CITY * SUNNY     88  36  15 W25G36    29.89F HX  84
IOWA FALLS *     N/A     86  37  17 W22G36    29.91F HX  83
$$

IAZ007>011-017>019-026>030-037>042-050>054-066-062000-
   NORTHEAST IOWA

CITY           SKY/WX    TMP DP  RH WIND       PRES   REMARKS
CEDAR RAPIDS     N/A     83  49  30 SW17      29.91F HX  81
CHARLES CITY * SUNNY     88  34  14 W21G31    29.88F HX  84
CLINTON *      SUNNY     81  50  33 W12       29.91F HX  80
DECORAH *      SUNNY     86  39  19 W9G20     29.86F HX  83
DUBUQUE        SUNNY     81  50  33 W15       29.91F HX  80
MONTICELLO *   SUNNY     84  46  26 W15G22    29.90F HX  82
OELWEIN *      SUNNY     86  41  20 W22G31    29.89F HX  83
WATERLOO       SUNNY     87  41  19 W13G28    29.88F HX  84
$$

IAZ064-065-067-068-078-062000-
   EAST CENTRAL IOWA

CITY           SKY/WX    TMP DP  RH WIND       PRES   REMARKS
DAVENPORT      SUNNY     83  42  23 W12       29.93F HX  81
IOWA CITY      SUNNY     83  48  29 W15       29.94F HX  81
MT. PLEASANT * SUNNY     84  45  24 SW13      29.96F HX  82
MUSCATINE *    SUNNY     84  46  26 W12G18    29.93F HX  82
QUAD CITIES    SUNNY     82  48  30 W12       29.92F HX  81
$$

IAZ062-063-075>077-085>089-095>099-062000-
   SOUTHEAST IOWA

CITY           SKY/WX    TMP DP  RH WIND       PRES   REMARKS
BURLINGTON     SUNNY     80  49  33 SW10      29.96F
FAIRFIELD *    SUNNY     82  45  26 W16       29.96F HX  80
FORT MADISON * SUNNY     81  48  32 W6        29.98F HX  80
KEOKUK *       SUNNY     81  48  32 W8G16     29.97F HX  80
OSKALOOSA *      N/A     82  46  28 W14G23    29.96F HX  81
OTTUMWA        SUNNY     82  49  31 SW16      29.96F HX  81
WASHINGTON *   SUNNY     84  46  26 W13G20    29.96F HX  82
$$

ABBREVIATIONS USED IN REMARKS
   TC - TEMPERATURES IN CELSIUS
  WCI - WIND CHILL INDEX
   HX - HEAT INDEX
  VSB - VISIBILITY
$$





USA.gov is the U.S. government's official web portal to all federal, state and local government web resources and services.